Tiempo atmosférico en la estación meteorológica de El Paso, Santa Cruz de Tenerife (844 m.)



Fecha
DESCASC
Temp. máxima en grados centígrados (hora)
DESCASC
Temp. mínima en grados centígrados (hora)
DESCASC
Temp. media en grados centígrados
DESCASC
Racha de viento máxima en m/sg (hora)
DESCASC
Velocidad máxima media en intervalos de 10 minutos(hora)
DESCASC
Precipitaciones diarias en mm
DESCASC
Precipitaciones de 00:00 a 06:00 en mm
DESCASC
Precipitaciones de 06:00 a 12:00 en mm
DESCASC
Precipitaciones de 12:00 a 18:00 en mm
DESCASC
Precipitaciones de 18:00 a 24:00 en mm
DESCASC
24-09-2020 23.6 (16:30) 14.9 (07:50) 19.3 6.94 (12:40) 4.17 (14:50) 0 0 0 0 0
23-09-2020 25.1 (16:50) 17.7 (00:00) 21.4 7.5 (17:00) 5 (17:00) 0 0 0 0 0
22-09-2020 28.6 (13:30) 20.6 (00:00) 24.6 7.5 (13:40) 5 (14:50) 0 0 0 0 0
21-09-2020 30.6 (17:00) 18 (00:00) 24.3 6.11 (15:30) 3.89 (14:50) 0 0 0 0 0
20-09-2020 29.8 (16:40) 16.4 (00:00) 23.1 5.83 (17:30) 3.61 (16:50) 0 0 0 0 0
19-09-2020 25.3 (16:20) 13.2 (00:00) 19.2 6.39 (15:20) 4.17 (19:00) 0 0 0 0 0
18-09-2020 22.6 (14:30) 12.3 (00:00) 17.5 6.94 (14:40) 4.17 (15:00) 0 0 0 0 0
17-09-2020 24.4 (14:40) 16.9 (00:00) 20.6 9.17 (15:30) 5.83 (14:50) 0 0 0 0 0
16-09-2020 28.1 (14:30) 21.6 (06:30) 24.9 10.28 (07:50) 5.83 (00:40) 0 0 0 0 0
15-09-2020 28.3 (14:00) 19.1 (00:00) 23.7 9.17 (16:50) 5.56 (17:20) 0 0 0 0 0
14-09-2020 25.1 (16:00) 14.2 (00:00) 19.7 7.5 (15:30) 4.17 (13:20) 0 0 0 0 0
13-09-2020 23 (17:30) 13.1 (00:00) 18.1 7.22 (15:30) 4.17 (15:20) 0 0 0 0 0
12-09-2020 23 (13:00) 16.5 (23:59) 19.8 8.06 (13:10) 5.83 (13:20) 0.4 0 0 0.4 0
11-09-2020 27.7 (12:10) 20.4 (00:00) 24.1 7.78 (14:20) 5 (14:30) 0 0 0 0 0
10-09-2020 33.3 (14:20) 24.2 (00:00) 28.8 16.11 (01:30) 8.89 (01:30) 0 0 0 0 0
09-09-2020 32.7 (14:50) 26.4 (04:50) 29.6 18.06 (03:20) 10.56 (06:50) 0 0 0 0 0
08-09-2020 33.2 (14:30) 26.5 (00:00) 29.9 19.17 (18:30) 9.44 (11:30) 0 0 0 0 0
07-09-2020 31.5 (15:20) 17.4 (02:30) 24.4 8.33 (23:50) 5.28 (23:10) 0 0 0 0 0
06-09-2020 24.4 (18:00) 13 (00:00) 18.7 7.22 (18:20) 5 (18:20) 0 0 0 0 0
05-09-2020 23 (14:50) 14.9 (00:00) 18.9 6.94 (13:30) 3.89 (13:20) 0 0 0 0 0
04-09-2020 30.8 (11:30) 16.7 (00:00) 23.8 7.22 (16:30) 4.17 (18:00) 0 0 0 0 0
03-09-2020 28.8 (11:50) 15.6 (00:00) 22.2 6.39 (17:40) 4.17 (13:40) 0 0 0 0 0
02-09-2020 25.1 (15:30) 12.4 (00:00) 18.8 6.39 (15:50) 4.17 (17:10) 0 0 0 0 0
01-09-2020 24.1 (15:10) 12.3 (00:00) 18.2 13.33 (02:10) 7.5 (02:30) 0 0 0 0 0
31-08-2020 22 (16:30) 15 (00:00) 18.5 17.22 (00:40) 8.89 (00:50) 0 0 0 0 0
30-08-2020 21.1 (14:30) 15.3 (00:00) 18.2 23.06 (03:30) 11.94 (00:50) 0 0 0 0 0
29-08-2020 27.8 (00:10) 16.7 (00:00) 22.3 21.11 (14:30) 12.5 (13:20) 0 0 0 0 0
28-08-2020 35.3 (14:30) 27.6 (00:00) 31.4 18.33 (07:30) 11.39 (07:10) 0 0 0 0 0

Gráficas

Temp. máximas Temp. mínimas Temp. medias Precipitaciones Rachas de viento máximas Velocidades máximas media en intervalos de 10 minutos

Datos horarios

Fecha y hora oficial Temperatura (ºC) Velocidad del viento (km/h) Dirección del viento Racha (km/h) Dirección de racha Precipitación (mm) Presión (hPa) Tendencia (hPa) Humedad (%)
2020-09-26 23:00:00 23 5 Este 8 Este 0 -- -- 45
2020-09-26 22:00:00 23.4 3 Este 9 Nordeste 0 -- -- 47
2020-09-26 21:00:00 24.7 3 Este 8 Este 0 -- -- 46
2020-09-26 20:00:00 27 5 Oeste 15 Oeste 0 -- -- 42
2020-09-26 19:00:00 28.5 10 Oeste 18 Oeste 0 -- -- 40
2020-09-26 18:00:00 29.2 12 Oeste 19 Oeste 0 -- -- 39
2020-09-26 17:00:00 29 12 Oeste 26 Oeste 0 -- -- 39
2020-09-26 16:00:00 29.6 14 Oeste 25 Oeste 0 -- -- 40
2020-09-26 15:00:00 29.8 13 Oeste 25 Oeste 0 -- -- 40
2020-09-26 14:00:00 31 14 Oeste 32 Este 0 -- -- 35
2020-09-26 13:00:00 30.1 19 Este 35 Este 0 -- -- 33
2020-09-26 12:00:00 29 25 Este 37 Este 0 -- -- 34
2020-09-26 11:00:00 28.5 17 Este 36 Este 0 -- -- 35
2020-09-26 10:00:00 27.1 17 Este 34 Este 0 -- -- 36
2020-09-26 09:00:00 25.1 15 Sudeste 32 Este 0 -- -- 38
2020-09-26 08:00:00 24.5 17 Sudeste 30 Este 0 -- -- 38
2020-09-26 07:00:00 24.9 14 Este 27 Este 0 -- -- 38
2020-09-26 06:00:00 24.7 9 Sudeste 21 Este 0 -- -- 39
2020-09-26 05:00:00 24.8 9 Este 19 Sudeste 0 -- -- 39
2020-09-26 04:00:00 24.6 9 Este 18 Sudeste 0 -- -- 39
2020-09-26 03:00:00 24.9 11 Sudeste 21 Sudeste 0 -- -- 39
2020-09-26 02:00:00 24.4 5 Este 16 Sudeste 0 -- -- 41
2020-09-26 01:00:00 24.7 10 Este 16 Este 0 -- -- 40
2020-09-26 00:00:00 24.5 3 Este 13 Este 0 -- -- 45
2020-09-25 23:00:00 24.5 2 Este 12 Sudeste 0 -- -- 44
2020-09-25 22:00:00 24.3 4 Este 8 Nordeste 0 -- -- 41
2020-09-25 21:00:00 24.5 6 Este 15 Sudeste 0 -- -- 41
2020-09-25 20:00:00 25.9 9 Sudeste 19 Sudeste 0 -- -- 39
2020-09-25 19:00:00 26.7 9 Sur 21 Este 0 -- -- 47
2020-09-25 18:00:00 27.7 14 Oeste 22 Este 0 -- -- 46
2020-09-25 17:00:00 27.9 10 Oeste 23 Sudeste 0 -- -- 43
2020-09-25 16:00:00 28.4 11 Sudoeste 25 Este 0 -- -- 47
2020-09-25 15:00:00 28.7 15 Oeste 24 Sur 0 -- -- 46
2020-09-25 14:00:00 28.6 13 Sudeste 35 Este 0 -- -- 45
2020-09-25 13:00:00 29.1 10 Sudoeste 29 Este 0 -- -- 46
2020-09-25 12:00:00 29.3 5 Oeste 15 Noroeste 0 -- -- 41
2020-09-25 11:00:00 28.7 4 Sudoeste 13 Oeste 0 -- -- 38
2020-09-25 10:00:00 26.3 0 Calma 7 Nordeste 0 -- -- 37
2020-09-25 09:00:00 22.1 8 Sudeste 12 Sudeste 0 -- -- 44
2020-09-25 08:00:00 20.3 4 Sudeste 10 Oeste 0 -- -- 49
2020-09-25 07:00:00 19.5 4 Sudeste 8 Sudeste 0 -- -- 51
2020-09-25 06:00:00 19.8 2 Este 12 Este 0 -- -- 54
2020-09-25 05:00:00 18.4 5 Sudeste 13 Sudeste 0 -- -- 58
2020-09-25 04:00:00 17.4 4 Este 10 Este 0 -- -- 63
2020-09-25 03:00:00 17.6 5 Este 8 Este 0 -- -- 64
2020-09-25 02:00:00 17.5 3 Este 9 Este 0 -- -- 63
2020-09-25 01:00:00 17.9 6 Este 10 Este 0 -- -- 62
2020-09-25 00:00:00 18 6 Este 9 Este 0 -- -- 62
2020-09-24 23:00:00 18.1 4 Este 8 Este 0 -- -- 64
2020-09-24 22:00:00 18.8 5 Este 9 Este 0 -- -- 64
2020-09-24 21:00:00 19.9 6 Este 9 Este 0 -- -- 75
2020-09-24 20:00:00 21.4 4 Oeste 14 Oeste 0 -- -- 73
2020-09-24 19:00:00 22.2 8 Oeste 16 Oeste 0 -- -- 67
2020-09-24 18:00:00 22.8 10 Oeste 22 Oeste 0 -- -- 70
2020-09-24 17:00:00 23.5 12 Oeste 19 Oeste 0 -- -- 68
2020-09-24 16:00:00 23.2 9 Oeste 24 Oeste 0 -- -- 68
2020-09-24 15:00:00 22.7 13 Oeste 23 Oeste 0 -- -- 71
2020-09-24 14:00:00 22.9 11 Oeste 22 Oeste 0 -- -- 68
2020-09-24 13:00:00 22.8 10 Oeste 25 Oeste 0 -- -- 69
2020-09-24 12:00:00 23.1 9 Oeste 15 Oeste 0 -- -- 65
2020-09-24 11:00:00 20.7 4 Oeste 16 Oeste 0 -- -- 71
2020-09-24 10:00:00 20.8 7 Oeste 15 Oeste 0 -- -- 61
2020-09-24 09:00:00 16.2 4 Este 9 Este 0 -- -- 76
2020-09-24 08:00:00 14.9 3 Este 8 Este 0 -- -- 79
2020-09-24 07:00:00 15.4 2 Sudeste 9 Sudeste 0 -- -- 76
2020-09-24 06:00:00 15.3 4 Sudeste 9 Este 0 -- -- 77
2020-09-24 05:00:00 15.4 4 Este 8 Este 0 -- -- 75
2020-09-24 04:00:00 15.7 4 Este 9 Este 0 -- -- 75
2020-09-24 03:00:00 16.1 4 Sudeste 10 Este 0 -- -- 75
2020-09-24 02:00:00 16.1 4 Este 7 Este 0 -- -- 74
2020-09-24 01:00:00 16.7 4 Este 8 Este 0 -- -- 72
2020-09-24 00:00:00 17.7 0 Calma 9 Oeste 0 -- -- 82
2020-09-23 23:00:00 18.5 6 Sudoeste 11 Sudoeste 0 -- -- 70
2020-09-23 22:00:00 19.1 0 Calma 8 Nordeste 0 -- -- 81
2020-09-23 21:00:00 19.7 3 Este 6 Este 0 -- -- 69
2020-09-23 20:00:00 21.1 3 Sudoeste 17 Oeste 0 -- -- 66
2020-09-23 19:00:00 22.7 13 Oeste 20 Oeste 0 -- -- 62
2020-09-23 18:00:00 22.9 10 Oeste 26 Oeste 0 -- -- 51
2020-09-23 17:00:00 25 18 Oeste 27 Oeste 0 -- -- 54
2020-09-23 16:00:00 24.3 8 Oeste 19 Sur 0 -- -- 46
2020-09-23 15:00:00 22.4 7 Oeste 22 Oeste 0 -- -- 64
2020-09-23 14:00:00 22.1 14 Oeste 23 Oeste 0 -- -- 69
2020-09-23 13:00:00 21.8 10 Oeste 17 Oeste 0 -- -- 70
2020-09-23 12:00:00 21.9 3 Norte 22 Oeste 0 -- -- 65
2020-09-23 11:00:00 21 14 Oeste 25 Oeste 0 -- -- 70
2020-09-23 10:00:00 20.9 0 Calma 7 Este 0 -- -- 60
2020-09-23 09:00:00 19.5 4 Este 6 Este 0 -- -- 64
2020-09-23 08:00:00 19.5 3 Oeste 6 Norte 0 -- -- 63
2020-09-23 07:00:00 20.3 4 Oeste 9 Sur 0 -- -- 63
2020-09-23 06:00:00 19.9 3 Este 9 Oeste 0 -- -- 51
2020-09-23 05:00:00 20.5 3 Sudeste 6 Nordeste 0 -- -- 47
2020-09-23 04:00:00 21.2 3 Sudoeste 13 Oeste 0 -- -- 47
2020-09-23 03:00:00 21.8 14 Oeste 26 Oeste 0 -- -- 50
2020-09-23 02:00:00 21.2 3 Sudeste 17 Oeste 0 -- -- 48
2020-09-23 01:00:00 21.9 7 Sur 14 Sudeste 0 -- -- 44
2020-09-23 00:00:00 20.8 6 Este 14 Oeste 0 -- -- 55
2020-09-22 23:00:00 21.4 13 Oeste 19 Oeste 0 -- -- 61
2020-09-22 22:00:00 21 4 Sudeste 14 Este 0 -- -- 61
2020-09-22 21:00:00 21.3 4 Este 26 Noroeste 0 -- -- 64
2020-09-22 20:00:00 23.4 4 Este 23 Oeste 0 -- -- 43
2020-09-22 19:00:00 24.8 2 Norte 16 Oeste 0 -- -- 34
2020-09-22 18:00:00 25.6 14 Oeste 24 Oeste 0 -- -- 29
2020-09-22 17:00:00 25.8 7 Oeste 21 Oeste 0 -- -- 28
2020-09-22 16:00:00 26.2 14 Oeste 24 Oeste 0 -- -- 30
2020-09-22 15:00:00 26.8 12 Oeste 26 Noroeste 0 -- -- 35
2020-09-22 14:00:00 26.9 5 Oeste 27 Oeste 0 -- -- 40
2020-09-22 13:00:00 27.1 5 Sur 16 Oeste 0 -- -- 30
2020-09-22 12:00:00 26.5 11 Oeste 15 Oeste 0 -- -- 37
2020-09-22 11:00:00 25.3 6 Oeste 9 Oeste 0 -- -- 34
2020-09-22 10:00:00 23.9 6 Oeste 9 Oeste 0 -- -- 35
2020-09-22 09:00:00 22.5 5 Este 8 Este 0 -- -- 37
2020-09-22 08:00:00 22.2 4 Este 10 Sudeste 0 -- -- 38
2020-09-22 07:00:00 21.9 6 Sudeste 10 Oeste 0 -- -- 37
2020-09-22 06:00:00 21.7 6 Sudeste 10 Este 0 -- -- 38
2020-09-22 05:00:00 21.6 3 Este 11 Sur 0 -- -- 36
2020-09-22 04:00:00 22 5 Oeste 20 Oeste 0 -- -- 34
2020-09-22 03:00:00 21.2 5 Sudeste 8 Este 0 -- -- 39
2020-09-22 02:00:00 21.5 5 Sudeste 9 Este 0 -- -- 38
2020-09-22 01:00:00 22.3 8 Este 9 Este 0 -- -- 35
2020-09-22 00:00:00 23.2 4 Sudeste 10 Este 0 -- -- 36
2020-09-21 23:00:00 23.3 4 Sudoeste 15 Sudoeste 0 -- -- 33
2020-09-21 22:00:00 23.5 3 Nordeste 8 Sudeste 0 -- -- 35
2020-09-21 21:00:00 24.2 8 Este 13 Oeste 0 -- -- 35
2020-09-21 20:00:00 26.1 2 Norte 14 Oeste 0 -- -- 29
2020-09-21 19:00:00 27.6 5 Oeste 18 Oeste 0 -- -- 37
2020-09-21 18:00:00 29.1 13 Oeste 19 Oeste 0 -- -- 31
2020-09-21 17:00:00 30.6 12 Oeste 17 Oeste 0 -- -- 37
2020-09-21 16:00:00 29.7 9 Oeste 22 Oeste 0 -- -- 34
2020-09-21 15:00:00 30.3 9 Oeste 19 Oeste 0 -- -- 37
2020-09-21 14:00:00 29.7 8 Oeste 20 Oeste 0 -- -- 37
2020-09-21 13:00:00 29.9 6 Oeste 13 Oeste 0 -- -- 32
2020-09-21 12:00:00 28 10 Oeste 20 Oeste 0 -- -- 30
2020-09-21 11:00:00 29.2 4 Oeste 9 Oeste 0 -- -- 28
2020-09-21 10:00:00 25.1 0 Calma 5 Sudeste 0 -- -- 33
2020-09-21 09:00:00 20.1 4 Sudeste 8 Este 0 -- -- 43
2020-09-21 08:00:00 18.8 4 Este 12 Este 0 -- -- 43
2020-09-21 07:00:00 18.8 5 Este 10 Oeste 0 -- -- 43
2020-09-21 06:00:00 18 5 Este 9 Este 0 -- -- 45
2020-09-21 05:00:00 19.1 4 Este 11 Este 0 -- -- 42
2020-09-21 04:00:00 19.1 5 Este 9 Este 0 -- -- 43
2020-09-21 03:00:00 19 7 Este 12 Este 0 -- -- 43
2020-09-21 02:00:00 19.1 3 Sudeste 9 Este 0 -- -- 42
2020-09-21 01:00:00 19.4 3 Sudeste 7 Este 0 -- -- 42
2020-09-21 00:00:00 19.6 4 Este 8 Este 0 -- -- 43
2020-09-20 23:00:00 20.3 2 Este 9 Este 0 -- -- 41
2020-09-20 22:00:00 20.9 0 Calma 11 Oeste 0 -- -- 74
2020-09-20 21:00:00 21.4 6 Este 12 Oeste 0 -- -- 76
2020-09-20 20:00:00 24 2 Oeste 11 Oeste 0 -- -- 67
2020-09-20 19:00:00 24.5 6 Oeste 18 Sudoeste 0 -- -- 65
2020-09-20 18:00:00 26.6 12 Oeste 21 Oeste 0 -- -- 57
2020-09-20 17:00:00 28.6 10 Oeste 20 Oeste 0 -- -- 47
2020-09-20 16:00:00 29.4 9 Oeste 17 Oeste 0 -- -- 38
2020-09-20 15:00:00 28.2 12 Oeste 21 Oeste 0 -- -- 35
2020-09-20 14:00:00 27.9 10 Oeste 18 Oeste 0 -- -- 30
2020-09-20 13:00:00 27.9 12 Oeste 17 Noroeste 0 -- -- 36
2020-09-20 12:00:00 27.7 6 Oeste 19 Oeste 0 -- -- 28
2020-09-20 11:00:00 27.1 8 Oeste 12 Oeste 0 -- -- 22
2020-09-20 10:00:00 24.4 5 Este 9 Este 0 -- -- 31
2020-09-20 09:00:00 18.4 5 Este 10 Este 0 -- -- 39
2020-09-20 08:00:00 16.7 4 Este 9 Este 0 -- -- 41
2020-09-20 07:00:00 16.7 6 Este 8 Este 0 -- -- 42
2020-09-20 06:00:00 16.7 4 Este 9 Este 0 -- -- 43
2020-09-20 05:00:00 16.7 3 Sudeste 5 Sudeste 0 -- -- 44
2020-09-20 04:00:00 17 4 Este 12 Este 0 -- -- 42
2020-09-20 03:00:00 17 5 Sudeste 6 Sudeste 0 -- -- 42
2020-09-20 02:00:00 17.6 3 Este 9 Este 0 -- -- 44
2020-09-20 01:00:00 17.5 6 Este 9 Este 0 -- -- 44
2020-09-20 00:00:00 18.3 4 Este 8 Sudeste 0 -- -- 48
2020-09-19 23:00:00 18.8 6 Este 12 Sudoeste 0 -- -- 54
2020-09-19 22:00:00 19.6 4 Este 8 Este 0 -- -- 60
2020-09-19 21:00:00 20.5 3 Este 9 Oeste 0 -- -- 76
2020-09-19 20:00:00 21.8 4 Oeste 15 Oeste 0 -- -- 72
2020-09-19 19:00:00 23.7 15 Oeste 21 Oeste 0 -- -- 65
2020-09-19 18:00:00 24.4 12 Oeste 18 Oeste 0 -- -- 61
2020-09-19 17:00:00 24.7 9 Oeste 22 Oeste 0 -- -- 60
2020-09-19 16:00:00 25 10 Oeste 23 Oeste 0 -- -- 56
2020-09-19 15:00:00 25.1 11 Oeste 20 Oeste 0 -- -- 51
2020-09-19 14:00:00 24.6 12 Oeste 19 Oeste 0 -- -- 56
2020-09-19 13:00:00 24.2 10 Oeste 22 Oeste 0 -- -- 55
2020-09-19 12:00:00 24.2 7 Oeste 17 Oeste 0 -- -- 59
2020-09-19 11:00:00 24.2 7 Oeste 14 Oeste 0 -- -- 52
2020-09-19 10:00:00 21.8 0 Calma 6 Oeste 0 -- -- 39
2020-09-19 09:00:00 15 2 Sudeste 8 Sudeste 0 -- -- 42
2020-09-19 08:00:00 14.4 0 Calma 7 Este 0 -- -- 48
2020-09-19 07:00:00 14.9 4 Este 9 Sudeste 0 -- -- 40
2020-09-19 06:00:00 14.1 3 Sudeste 12 Sudeste 0 -- -- 48
2020-09-19 05:00:00 13.2 5 Este 9 Este 0 -- -- 60
2020-09-19 04:00:00 14.4 6 Este 14 Sudoeste 0 -- -- 79
2020-09-19 03:00:00 14.2 6 Este 10 Este 0 -- -- 67
2020-09-19 02:00:00 15.1 7 Sudeste 12 Este 0 -- -- 75
2020-09-19 01:00:00 15.2 4 Este 8 Este 0 -- -- 63
2020-09-19 00:00:00 16.2 3 Este 9 Este 0 -- -- 67
2020-09-18 23:00:00 16.3 4 Este 9 Este 0 -- -- 76
2020-09-18 22:00:00 17.5 2 Norte 8 Oeste 0 -- -- 83
2020-09-18 21:00:00 18.8 0 Calma 10 Oeste 0 -- -- 82
2020-09-18 20:00:00 20.6 8 Oeste 16 Noroeste 0 -- -- 73
2020-09-18 19:00:00 21.6 8 Noroeste 17 Oeste 0 -- -- 72
2020-09-18 18:00:00 22.4 12 Oeste 22 Oeste 0 -- -- 68
2020-09-18 17:00:00 22.6 12 Oeste 22 Oeste 0 -- -- 66
2020-09-18 16:00:00 22.4 13 Oeste 24 Oeste 0 -- -- 68
2020-09-18 15:00:00 22.3 15 Oeste 25 Oeste 0 -- -- 69
2020-09-18 14:00:00 22.1 10 Oeste 21 Oeste 0 -- -- 68
2020-09-18 13:00:00 22.3 13 Oeste 22 Oeste 0 -- -- 66
2020-09-18 12:00:00 22.1 12 Oeste 19 Oeste 0 -- -- 63
2020-09-18 11:00:00 21.7 7 Oeste 12 Oeste 0 -- -- 60
2020-09-18 10:00:00 19.3 0 Calma 5 Este 0 -- -- 54
2020-09-18 09:00:00 13.5 2 Este 8 Este 0 -- -- 66
2020-09-18 08:00:00 12.4 7 Este 9 Este 0 -- -- 74
2020-09-18 07:00:00 12.7 3 Sudeste 6 Este 0 -- -- 73
2020-09-18 06:00:00 13 4 Este 6 Este 0 -- -- 80
2020-09-18 05:00:00 13.4 0 Calma 4 Este 0 -- -- 74
2020-09-18 04:00:00 13.9 2 Este 7 Este 0 -- -- 67
2020-09-18 03:00:00 14.8 3 Este 6 Este 0 -- -- 64
2020-09-18 02:00:00 15.1 0 Calma 7 Este 0 -- -- 67
2020-09-18 01:00:00 15.5 3 Oeste 8 Sur 0 -- -- 69
2020-09-18 00:00:00 17 0 Calma 8 Este 0 -- -- 84
2020-09-17 23:00:00 17.1 3 Nordeste 6 Norte 0 -- -- 70
2020-09-17 22:00:00 18.3 3 Oeste 5 Nordeste 0 -- -- 80
2020-09-17 21:00:00 19.2 0 Calma 10 Noroeste 0 -- -- 77
2020-09-17 20:00:00 20.7 5 Oeste 15 Oeste 0 -- -- 73
2020-09-17 19:00:00 22.1 6 Noroeste 18 Oeste 0 -- -- 68
2020-09-17 18:00:00 23.2 13 Oeste 22 Oeste 0 -- -- 65
2020-09-17 17:00:00 24 15 Oeste 25 Oeste 0 -- -- 64
2020-09-17 16:00:00 24 16 Oeste 33 Oeste 0 -- -- 66
2020-09-17 15:00:00 24.3 18 Oeste 29 Oeste 0 -- -- 62
2020-09-17 14:00:00 24 14 Oeste 23 Oeste 0 -- -- 66
2020-09-17 13:00:00 23.6 16 Oeste 26 Oeste 0 -- -- 70
2020-09-17 12:00:00 23.8 9 Oeste 21 Oeste 0 -- -- 69
2020-09-17 11:00:00 24.2 6 Oeste 19 Oeste 0 -- -- 66
2020-09-17 10:00:00 23.1 5 Sudeste 11 Sudeste 0 -- -- 53
2020-09-17 09:00:00 19.7 3 Oeste 6 Este 0 -- -- 65
2020-09-17 08:00:00 19 5 Este 9 Este 0 -- -- 59
2020-09-17 07:00:00 19.4 0 Calma 9 Este 0 -- -- 58
2020-09-17 06:00:00 19.2 4 Este 9 Sudeste 0 -- -- 58
2020-09-17 05:00:00 19.4 3 Este 19 Oeste 0 -- -- 65
2020-09-17 04:00:00 19.9 6 Sudeste 14 Nordeste 0 -- -- 56
2020-09-17 03:00:00 20.3 5 Este 18 Oeste 0 -- -- 58
2020-09-17 02:00:00 20.7 4 Nordeste 14 Sudeste 0 -- -- 56
2020-09-17 01:00:00 21.7 6 Noroeste 13 Noroeste 0 -- -- 55
2020-09-17 00:00:00 21.8 4 Nordeste 8 Nordeste 0 -- -- 53
2020-09-16 23:00:00 22.4 0 Calma 8 Este 0 -- -- 52
2020-09-16 22:00:00 22.7 3 Este 7 Este 0 -- -- 52
2020-09-16 21:00:00 23.5 0 Calma 9 Noroeste 0 -- -- 51
2020-09-16 20:00:00 24.4 2 Nordeste 25 Oeste 0 -- -- 51
2020-09-16 19:00:00 25.3 11 Oeste 25 Oeste 0 -- -- 46
2020-09-16 18:00:00 25.8 13 Oeste 24 Oeste 0 -- -- 53
2020-09-16 17:00:00 26.5 12 Oeste 27 Oeste 0 -- -- 43
2020-09-16 16:00:00 27.2 10 Oeste 23 Oeste 0 -- -- 41
2020-09-16 15:00:00 27.3 13 Oeste 24 Oeste 0 -- -- 49
2020-09-16 14:00:00 27 5 Oeste 14 Oeste 0 -- -- 45
2020-09-16 13:00:00 25.8 6 Oeste 34 Oeste 0 -- -- 49
2020-09-16 12:00:00 25.9 8 Noroeste 17 Oeste 0 -- -- 45
2020-09-16 11:00:00 23.8 9 Oeste 19 Oeste 0 -- -- 51
2020-09-16 10:00:00 23.6 9 Oeste 17 Este 0 -- -- 49
2020-09-16 09:00:00 22.7 8 Este 18 Sur 0 -- -- 52
2020-09-16 08:00:00 22.6 10 Oeste 37 Sudeste 0 -- -- 51
2020-09-16 07:00:00 22.2 14 Este 24 Este 0 -- -- 52
2020-09-16 06:00:00 22.5 10 Noroeste 24 Oeste 0 -- -- 53
2020-09-16 05:00:00 22.8 17 Sudeste 30 Sudeste 0 -- -- 49
2020-09-16 04:00:00 22.9 9 Sudeste 22 Sudeste 0 -- -- 49
2020-09-16 03:00:00 21.8 5 Este 36 Sudeste 0 -- -- 58
2020-09-16 02:00:00 22.3 13 Sudeste 28 Sudeste 0 -- -- 52
2020-09-16 01:00:00 22.6 6 Norte 37 Sudeste 0 -- -- 58
2020-09-16 00:00:00 22.7 14 Sudeste 25 Este 0 -- -- 52
2020-09-15 23:00:00 22.5 4 Este 19 Oeste 0 -- -- 66
2020-09-15 22:00:00 24.3 8 Sudoeste 13 Sudeste 0 -- -- 54
2020-09-15 21:00:00 24.6 10 Sudeste 26 Nordeste 0 -- -- 48
2020-09-15 20:00:00 22.3 13 Noroeste 30 Oeste 0 -- -- 73
2020-09-15 19:00:00 24.7 7 Sudoeste 27 Oeste 0 -- -- 62
2020-09-15 18:00:00 22.4 8 Este 31 Oeste 0 -- -- 74
2020-09-15 17:00:00 25.1 11 Oeste 33 Oeste 0 -- -- 64
2020-09-15 16:00:00 25.8 14 Oeste 28 Oeste 0 -- -- 58
2020-09-15 15:00:00 27 5 Este 27 Oeste 0 -- -- 46
2020-09-15 14:00:00 28.3 8 Sur 25 Oeste 0 -- -- 47
2020-09-15 13:00:00 25 4 Noroeste 20 Oeste 0 -- -- 61
2020-09-15 12:00:00 25.3 4 Noroeste 30 Oeste 0 -- -- 52
2020-09-15 11:00:00 25.2 15 Oeste 32 Oeste 0 -- -- 49
2020-09-15 10:00:00 22.9 12 Noroeste 24 Oeste 0 -- -- 53
2020-09-15 09:00:00 22.9 3 Sudeste 14 Sudeste 0 -- -- 43
2020-09-15 08:00:00 21.7 5 Sudeste 13 Este 0 -- -- 42
2020-09-15 07:00:00 21.4 8 Sudeste 13 Sudeste 0 -- -- 41
2020-09-15 06:00:00 20.6 4 Este 9 Este 0 -- -- 43
2020-09-15 05:00:00 20.4 3 Sudeste 12 Este 0 -- -- 45
2020-09-15 04:00:00 19.4 6 Este 9 Este 0 -- -- 56
2020-09-15 03:00:00 19.1 6 Nordeste 11 Nordeste 0 -- -- 69
2020-09-15 02:00:00 20.2 10 Oeste 25 Oeste 0 -- -- 76
2020-09-15 01:00:00 20.1 4 Norte 14 Oeste 0 -- -- 75
2020-09-15 00:00:00 21.8 9 Oeste 23 Oeste 0 -- -- 66
2020-09-14 23:00:00 20.1 4 Norte 13 Oeste 0 -- -- 76
2020-09-14 22:00:00 20.6 4 Este 8 Sudeste 0 -- -- 78
2020-09-14 21:00:00 20.9 2 Sudoeste 14 Oeste 0 -- -- 81
2020-09-14 20:00:00 21.6 4 Este 14 Oeste 0 -- -- 77
2020-09-14 19:00:00 23.2 9 Oeste 19 Oeste 0 -- -- 70
2020-09-14 18:00:00 24.1 13 Oeste 26 Oeste 0 -- -- 64
2020-09-14 17:00:00 24.6 10 Oeste 24 Oeste 0 -- -- 63
2020-09-14 16:00:00 25.1 9 Oeste 27 Oeste 0 -- -- 59
2020-09-14 15:00:00 24.6 12 Oeste 22 Oeste 0 -- -- 61
2020-09-14 14:00:00 24.6 12 Oeste 23 Oeste 0 -- -- 61
2020-09-14 13:00:00 24.8 8 Sudoeste 19 Oeste 0 -- -- 58
2020-09-14 12:00:00 23.9 9 Oeste 17 Oeste 0 -- -- 57
2020-09-14 11:00:00 23.2 6 Oeste 14 Oeste 0 -- -- 53
2020-09-14 10:00:00 21.6 3 Sudoeste 13 Oeste 0 -- -- 57
2020-09-14 09:00:00 15.6 7 Este 10 Este 0 -- -- 75
2020-09-14 08:00:00 14.3 4 Este 12 Nordeste 0 -- -- 74
2020-09-14 07:00:00 14.7 6 Este 10 Sudeste 0 -- -- 75
2020-09-14 06:00:00 14.5 5 Sudeste 9 Este 0 -- -- 74
2020-09-14 05:00:00 14.7 3 Sudeste 10 Este 0 -- -- 74
2020-09-14 04:00:00 14.9 5 Este 10 Este 0 -- -- 73
2020-09-14 03:00:00 14.8 6 Este 9 Este 0 -- -- 71
2020-09-14 02:00:00 15.2 5 Este 8 Este 0 -- -- 71
2020-09-14 01:00:00 15.6 5 Este 10 Este 0 -- -- 75
2020-09-14 00:00:00 15.9 3 Este 6 Nordeste 0 -- -- 73
2020-09-13 23:00:00 16.7 3 Nordeste 9 Nordeste 0 -- -- 74
2020-09-13 22:00:00 17.6 5 Este 8 Este 0 -- -- 73
2020-09-13 21:00:00 19.7 4 Oeste 9 Oeste 0 -- -- 68
2020-09-13 20:00:00 21.3 5 Oeste 21 Oeste 0 -- -- 61
2020-09-13 19:00:00 22.7 10 Oeste 18 Oeste 0 -- -- 59
2020-09-13 18:00:00 22.8 13 Oeste 22 Oeste 0 -- -- 59
2020-09-13 17:00:00 22.9 12 Oeste 23 Noroeste 0 -- -- 60
2020-09-13 16:00:00 22.7 12 Oeste 26 Oeste 0 -- -- 62
2020-09-13 15:00:00 22.7 13 Oeste 23 Oeste 0 -- -- 67
2020-09-13 14:00:00 22.7 13 Oeste 26 Oeste 0 -- -- 67
2020-09-13 13:00:00 22.2 10 Oeste 23 Oeste 0 -- -- 68
2020-09-13 12:00:00 21.8 12 Oeste 20 Oeste 0 -- -- 69
2020-09-13 11:00:00 21.4 5 Oeste 16 Oeste 0 -- -- 66
2020-09-13 10:00:00 19.2 10 Oeste 15 Oeste 0 -- -- 72
2020-09-13 09:00:00 14.9 6 Nordeste 13 Este 0 -- -- 77
2020-09-13 08:00:00 13.7 4 Sur 10 Este 0 -- -- 78
2020-09-13 07:00:00 13.4 6 Este 10 Este 0 -- -- 84
2020-09-13 06:00:00 13.1 5 Este 9 Este 0 -- -- 84
2020-09-13 05:00:00 13.6 3 Este 8 Este 0 -- -- 80
2020-09-13 04:00:00 13.8 4 Este 8 Este 0 -- -- 80
2020-09-13 03:00:00 14.7 3 Este 9 Este 0 -- -- 85
2020-09-13 02:00:00 15 3 Este 6 Este 0 -- -- 84
2020-09-13 01:00:00 15.9 4 Nordeste 7 Este 0 -- -- 88
2020-09-13 00:00:00 16.5 2 Este 6 Este 0 -- -- 79
2020-09-12 23:00:00 17.6 3 Este 6 Este 0 -- -- 83
2020-09-12 22:00:00 18.5 2 Oeste 12 Oeste 0 -- -- 87
2020-09-12 21:00:00 19 2 Norte 7 Oeste 0 -- -- 83
2020-09-12 20:00:00 19.5 4 Sudoeste 28 Oeste 0 -- -- 82
2020-09-12 19:00:00 20.2 10 Oeste 19 Oeste 0 -- -- 81
2020-09-12 18:00:00 20.4 5 Oeste 23 Oeste 0 -- -- 78
2020-09-12 17:00:00 20.9 6 Oeste 19 Oeste 0 -- -- 78
2020-09-12 16:00:00 19.5 9 Oeste 20 Oeste 0 -- -- 84
2020-09-12 15:00:00 19.2 10 Oeste 23 Oeste 0 -- -- 86
2020-09-12 14:00:00 19.2 13 Oeste 29 Oeste 0.4 -- -- 86
2020-09-12 13:00:00 23 15 Oeste 28 Oeste 0 -- -- 72
2020-09-12 12:00:00 21.3 10 Oeste 25 Oeste 0 -- -- 76
2020-09-12 11:00:00 21.8 4 Sudeste 16 Oeste 0 -- -- 71
2020-09-12 10:00:00 18.6 5 Noroeste 10 Este 0 -- -- 80
2020-09-12 09:00:00 17.8 2 Sudoeste 6 Sudoeste 0 -- -- 86
2020-09-12 08:00:00 17.6 4 Sur 18 Oeste 0 -- -- 87
2020-09-12 07:00:00 17.8 4 Nordeste 14 Sudeste 0 -- -- 82
2020-09-12 06:00:00 18.1 8 Oeste 14 Este 0 -- -- 87
2020-09-12 05:00:00 17.8 8 Sudeste 13 Este 0 -- -- 86
2020-09-12 04:00:00 18.2 2 Norte 13 Oeste 0 -- -- 87
2020-09-12 03:00:00 18.5 6 Noroeste 13 Oeste 0 -- -- 87
2020-09-12 02:00:00 19 4 Noroeste 9 Oeste 0 -- -- 87
2020-09-12 01:00:00 19.7 4 Oeste 12 Oeste 0 -- -- 82
2020-09-12 00:00:00 20.5 2 Noroeste 6 Oeste 0 -- -- 72
2020-09-11 23:00:00 20.7 3 Norte 6 Noroeste 0 -- -- 70
2020-09-11 22:00:00 20.4 5 Este 16 Oeste 0 -- -- 80
2020-09-11 21:00:00 21.9 3 Nordeste 12 Oeste 0 -- -- 69
2020-09-11 20:00:00 23.5 6 Oeste 14 Oeste 0 -- -- 69
2020-09-11 19:00:00 25.4 13 Oeste 22 Oeste 0 -- -- 63
2020-09-11 18:00:00 25.8 4 Oeste 14 Oeste 0 -- -- 55
2020-09-11 17:00:00 25.9 9 Oeste 21 Oeste 0 -- -- 61
2020-09-11 16:00:00 26.5 12 Oeste 27 Oeste 0 -- -- 57
2020-09-11 15:00:00 26.8 10 Oeste 28 Oeste 0 -- -- 54
2020-09-11 14:00:00 26.8 8 Noroeste 19 Oeste 0 -- -- 56
2020-09-11 13:00:00 26.3 12 Oeste 21 Oeste 0 -- -- 59
2020-09-11 12:00:00 27.1 3 Sur 16 Oeste 0 -- -- 42
2020-09-11 11:00:00 25.7 8 Oeste 13 Oeste 0 -- -- 53
2020-09-11 10:00:00 24.1 4 Oeste 10 Este 0 -- -- 48
2020-09-11 09:00:00 21.1 4 Noroeste 20 Oeste 0 -- -- 64
2020-09-11 08:00:00 20.9 2 Este 6 Sudeste 0 -- -- 41
2020-09-11 07:00:00 21.2 3 Este 9 Este 0 -- -- 41
2020-09-11 06:00:00 21 5 Este 9 Este 0 -- -- 42
2020-09-11 05:00:00 20.7 4 Este 8 Este 0 -- -- 44
2020-09-11 04:00:00 21.4 4 Este 7 Este 0 -- -- 44
2020-09-11 03:00:00 22 5 Este 9 Nordeste 0 -- -- 42
2020-09-11 02:00:00 22.1 4 Este 8 Sudeste 0 -- -- 46
2020-09-11 01:00:00 23.4 3 Nordeste 15 Oeste 0 -- -- 55
2020-09-11 00:00:00 24.2 4 Este 10 Norte 0 -- -- 37
2020-09-10 23:00:00 25.1 4 Este 8 Este 0 -- -- 36
2020-09-10 22:00:00 26 4 Este 8 Sudeste 0 -- -- 35
2020-09-10 21:00:00 27 4 Este 7 Nordeste 0 -- -- 34
2020-09-10 20:00:00 29.2 0 Calma 18 Oeste 0 -- -- 34
2020-09-10 19:00:00 30.3 7 Oeste 18 Noroeste 0 -- -- 30
2020-09-10 18:00:00 29.6 8 Oeste 18 Oeste 0 -- -- 42
2020-09-10 17:00:00 30.9 14 Oeste 25 Oeste 0 -- -- 34
2020-09-10 16:00:00 33.3 13 Este 41 Nordeste 0 -- -- 33
2020-09-10 15:00:00 33.1 19 Este 41 Este 0 -- -- 25
2020-09-10 14:00:00 33.2 23 Este 46 Este 0 -- -- 25
2020-09-10 13:00:00 32.7 26 Este 45 Este 0 -- -- 25
2020-09-10 12:00:00 32.1 26 Este 46 Este 0 -- -- 24
2020-09-10 11:00:00 31.2 27 Este 48 Sudeste 0 -- -- 27
2020-09-10 10:00:00 30.3 26 Este 46 Sudeste 0 -- -- 27
2020-09-10 09:00:00 28.8 22 Este 49 Nordeste 0 -- -- 28
2020-09-10 08:00:00 28.2 23 Este 51 Este 0 -- -- 26
2020-09-10 07:00:00 26.8 28 Este 50 Este 0 -- -- 28
2020-09-10 06:00:00 26.9 30 Este 50 Este 0 -- -- 28
2020-09-10 05:00:00 27.2 21 Este 50 Este 0 -- -- 32
2020-09-10 04:00:00 27.7 21 Este 42 Sudeste 0 -- -- 31
2020-09-10 03:00:00 27.6 23 Este 46 Este 0 -- -- 31
2020-09-10 02:00:00 27.6 28 Este 58 Este 0 -- -- 30
2020-09-10 01:00:00 27.9 29 Este 55 Este 0 -- -- 29
2020-09-10 00:00:00 27.9 30 Este 52 Este 0 -- -- 26
2020-09-09 23:00:00 28 28 Este 45 Este 0 -- -- 27
2020-09-09 22:00:00 27.4 26 Este 43 Este 0 -- -- 27
2020-09-09 21:00:00 29.1 23 Este 44 Este 0 -- -- 25
2020-09-09 20:00:00 29.7 22 Este 60 Este 0 -- -- 24
2020-09-09 19:00:00 30.4 30 Este 49 Este 0 -- -- 23
2020-09-09 18:00:00 31.3 28 Este 58 Este 0 -- -- 21
2020-09-09 17:00:00 31.9 30 Este 56 Este 0 -- -- 20
2020-09-09 16:00:00 32.2 33 Este 57 Este 0 -- -- 17
2020-09-09 15:00:00 32.6 31 Este 57 Este 0 -- -- 19
2020-09-09 14:00:00 32.2 33 Este 60 Este 0 -- -- 20
2020-09-09 13:00:00 31.7 36 Este 54 Este 0 -- -- 19
2020-09-09 12:00:00 31.4 35 Este 61 Este 0 -- -- 21
2020-09-09 11:00:00 30.2 37 Este 59 Sudeste 0 -- -- 21
2020-09-09 10:00:00 29.4 33 Este 58 Este 0 -- -- 19
2020-09-09 09:00:00 28 35 Este 61 Este 0 -- -- 19
2020-09-09 08:00:00 27.2 36 Este 65 Este 0 -- -- 22
2020-09-09 07:00:00 27 36 Este 60 Este 0 -- -- 21
2020-09-09 06:00:00 27.1 32 Este 60 Este 0 -- -- 25
2020-09-09 05:00:00 26.5 34 Este 58 Este 0 -- -- 27
2020-09-09 04:00:00 27 31 Este 65 Este 0 -- -- 29
2020-09-09 03:00:00 27.6 29 Este 58 Este 0 -- -- 29
2020-09-09 02:00:00 28.4 31 Este 54 Este 0 -- -- 30
2020-09-09 01:00:00 28.2 33 Este 56 Este 0 -- -- 30
2020-09-09 00:00:00 28 28 Este 52 Este 0 -- -- 29
2020-09-08 23:00:00 28.5 27 Este 51 Este 0 -- -- 30
2020-09-08 22:00:00 29 26 Este 50 Este 0 -- -- 31
2020-09-08 21:00:00 29.1 27 Este 46 Este 0 -- -- 31
2020-09-08 20:00:00 29.9 26 Este 48 Sudeste 0 -- -- 30
2020-09-08 19:00:00 31.4 24 Este 69 Nordeste 0 -- -- 28
2020-09-08 18:00:00 32.2 25 Este 44 Este 0 -- -- 27
2020-09-08 17:00:00 32.7 29 Este 48 Este 0 -- -- 26
2020-09-08 16:00:00 32.9 31 Este 50 Este 0 -- -- 27
2020-09-08 15:00:00 33.1 31 Este 55 Este 0 -- -- 27
2020-09-08 14:00:00 33 31 Este 53 Este 0 -- -- 28
2020-09-08 13:00:00 32.5 30 Este 59 Este 0 -- -- 29
2020-09-08 12:00:00 31.6 34 Este 60 Este 0 -- -- 30
2020-09-08 11:00:00 30.8 33 Este 54 Este 0 -- -- 29
2020-09-08 10:00:00 29.4 30 Este 54 Este 0 -- -- 30
2020-09-08 09:00:00 28.9 27 Este 48 Este 0 -- -- 32
2020-09-08 08:00:00 27.2 27 Este 55 Este 0 -- -- 27
2020-09-08 07:00:00 27.8 28 Este 49 Este 0 -- -- 33
2020-09-08 06:00:00 28 24 Este 41 Este 0 -- -- 36
2020-09-08 05:00:00 27.7 24 Este 48 Este 0 -- -- 37
2020-09-08 04:00:00 27.3 24 Este 42 Sudeste 0 -- -- 38
2020-09-08 03:00:00 26.9 26 Este 41 Este 0 -- -- 39
2020-09-08 02:00:00 28 19 Este 37 Este 0 -- -- 38
2020-09-08 01:00:00 27.2 20 Este 33 Este 0 -- -- 40
2020-09-08 00:00:00 28.3 13 Este 30 Este 0 -- -- 37
2020-09-07 23:00:00 26.7 8 Este 17 Este 0 -- -- 41
2020-09-07 22:00:00 25.7 4 Este 8 Nordeste 0 -- -- 42
2020-09-07 21:00:00 27.1 5 Sudeste 9 Sudeste 0 -- -- 41
2020-09-07 20:00:00 29.8 5 Oeste 11 Oeste 0 -- -- 38
2020-09-07 19:00:00 30.9 7 Oeste 16 Oeste 0 -- -- 35
2020-09-07 18:00:00 31.2 11 Oeste 19 Noroeste 0 -- -- 33
2020-09-07 17:00:00 30.1 8 Oeste 21 Noroeste 0 -- -- 35
2020-09-07 16:00:00 31.3 9 Noroeste 20 Noroeste 0 -- -- 34
2020-09-07 15:00:00 30.8 10 Oeste 24 Oeste 0 -- -- 36
2020-09-07 14:00:00 29.3 5 Este 21 Nordeste 0 -- -- 37
2020-09-07 13:00:00 29.2 10 Oeste 16 Oeste 0 -- -- 39
2020-09-07 12:00:00 26.3 5 Nordeste 12 Nordeste 0 -- -- 47
2020-09-07 11:00:00 24.9 4 Este 16 Este 0 -- -- 55
2020-09-07 10:00:00 24.2 11 Este 17 Este 0 -- -- 55
2020-09-07 09:00:00 22.7 3 Este 15 Este 0 -- -- 34
2020-09-07 08:00:00 20.9 5 Este 12 Sudeste 0 -- -- 29
2020-09-07 07:00:00 20.4 8 Sudeste 12 Sur 0 -- -- 32
2020-09-07 06:00:00 18.9 5 Sudeste 14 Oeste 0 -- -- 35
2020-09-07 05:00:00 19.9 5 Sur 10 Oeste 0 -- -- 32
2020-09-07 04:00:00 18.5 5 Sudeste 12 Sudeste 0 -- -- 37
2020-09-07 03:00:00 17.4 6 Este 12 Sudoeste 0 -- -- 46
2020-09-07 02:00:00 17.7 6 Este 10 Este 0 -- -- 42
2020-09-07 01:00:00 18.2 8 Sudeste 12 Este 0 -- -- 51
2020-09-07 00:00:00 17.7 6 Este 9 Este 0 -- -- 47
2020-09-06 23:00:00 18.1 0 Calma 9 Este 0 -- -- 55
2020-09-06 22:00:00 19 5 Este 8 Sudeste 0 -- -- 62
2020-09-06 21:00:00 19.9 3 Norte 12 Oeste 0 -- -- 82
2020-09-06 20:00:00 21.9 5 Oeste 13 Oeste 0 -- -- 74
2020-09-06 19:00:00 21.6 3 Norte 26 Oeste 0 -- -- 76
2020-09-06 18:00:00 24.4 11 Oeste 19 Oeste 0 -- -- 64
2020-09-06 17:00:00 23.7 10 Oeste 20 Oeste 0 -- -- 67
2020-09-06 16:00:00 23.4 12 Oeste 23 Oeste 0 -- -- 68
2020-09-06 15:00:00 23.3 9 Oeste 22 Oeste 0 -- -- 67
2020-09-06 14:00:00 23.3 15 Oeste 25 Oeste 0 -- -- 68
2020-09-06 13:00:00 23.8 10 Oeste 18 Noroeste 0 -- -- 64
2020-09-06 12:00:00 23.5 12 Oeste 20 Oeste 0 -- -- 61
2020-09-06 11:00:00 22.8 5 Oeste 18 Oeste 0 -- -- 54
2020-09-06 10:00:00 22.3 6 Sudoeste 9 Sudeste 0 -- -- 41
2020-09-06 09:00:00 15.1 6 Este 9 Este 0 -- -- 54
2020-09-06 08:00:00 13 4 Este 9 Este 0 -- -- 63
2020-09-06 07:00:00 13.3 4 Sudeste 9 Este 0 -- -- 65
2020-09-06 06:00:00 14 4 Sudeste 10 Este 0 -- -- 62
2020-09-06 05:00:00 13.9 8 Este 12 Este 0 -- -- 63
2020-09-06 04:00:00 14.5 3 Este 10 Este 0 -- -- 64
2020-09-06 03:00:00 14.4 5 Este 9 Este 0 -- -- 61
2020-09-06 02:00:00 15 7 Este 10 Este 0 -- -- 63
2020-09-06 01:00:00 15.6 4 Este 8 Este 0 -- -- 63
2020-09-06 00:00:00 15.9 4 Este 7 Este 0 -- -- 76
2020-09-05 23:00:00 17 2 Este 6 Sudoeste 0 -- -- 74
2020-09-05 22:00:00 18.3 3 Sudeste 6 Este 0 -- -- 80
2020-09-05 21:00:00 20.2 2 Oeste 8 Oeste 0 -- -- 77
2020-09-05 20:00:00 21.6 5 Noroeste 13 Oeste 0 -- -- 73
2020-09-05 19:00:00 22 8 Oeste 18 Oeste 0 -- -- 72
2020-09-05 18:00:00 22.6 10 Oeste 23 Oeste 0 -- -- 68
2020-09-05 17:00:00 22.6 9 Oeste 22 Oeste 0 -- -- 67
2020-09-05 16:00:00 22.4 12 Oeste 22 Oeste 0 -- -- 68
2020-09-05 15:00:00 23 13 Oeste 23 Oeste 0 -- -- 67
2020-09-05 14:00:00 22.4 12 Oeste 25 Oeste 0 -- -- 68
2020-09-05 13:00:00 22.5 12 Oeste 22 Oeste 0 -- -- 67
2020-09-05 12:00:00 22.2 11 Oeste 21 Oeste 0 -- -- 67
2020-09-05 11:00:00 22.5 10 Oeste 17 Oeste 0 -- -- 63
2020-09-05 10:00:00 21.6 3 Noroeste 12 Oeste 0 -- -- 64
2020-09-05 09:00:00 16.4 2 Nordeste 8 Este 0 -- -- 60
2020-09-05 08:00:00 15.8 2 Este 13 Oeste 0 -- -- 82
2020-09-05 07:00:00 16.3 6 Este 8 Este 0 -- -- 49
2020-09-05 06:00:00 16.9 3 Este 9 Este 0 -- -- 49
2020-09-05 05:00:00 17.3 3 Sudeste 8 Este 0 -- -- 54
2020-09-05 04:00:00 18 3 Este 8 Este 0 -- -- 55
2020-09-05 03:00:00 18.8 4 Sudoeste 12 Este 0 -- -- 50
2020-09-05 02:00:00 19.1 6 Oeste 15 Oeste 0 -- -- 57
2020-09-05 01:00:00 18.6 3 Este 8 Este 0 -- -- 60
2020-09-05 00:00:00 19.4 0 Calma 12 Oeste 0 -- -- 82
2020-09-04 23:00:00 21.4 4 Este 20 Oeste 0 -- -- 62
2020-09-04 22:00:00 22.3 5 Este 8 Sudeste 0 -- -- 51
2020-09-04 21:00:00 23.4 3 Oeste 12 Oeste 0 -- -- 63
2020-09-04 20:00:00 23.8 4 Nordeste 14 Oeste 0 -- -- 59
2020-09-04 19:00:00 25.8 11 Oeste 22 Oeste 0 -- -- 62
2020-09-04 18:00:00 28.2 15 Oeste 20 Oeste 0 -- -- 49
2020-09-04 17:00:00 28.1 8 Noroeste 26 Oeste 0 -- -- 49
2020-09-04 16:00:00 28.3 9 Oeste 18 Oeste 0 -- -- 38
2020-09-04 15:00:00 27.6 11 Oeste 21 Oeste 0 -- -- 50
2020-09-04 14:00:00 28.9 10 Oeste 18 Oeste 0 -- -- 37
2020-09-04 13:00:00 29.2 9 Oeste 18 Oeste 0 -- -- 28
2020-09-04 12:00:00 30.4 12 Oeste 17 Oeste 0 -- -- 25
2020-09-04 11:00:00 30.2 8 Oeste 12 Oeste 0 -- -- 22
2020-09-04 10:00:00 27.1 4 Este 9 Este 0 -- -- 24
2020-09-04 09:00:00 20.3 6 Este 11 Este 0 -- -- 35
2020-09-04 08:00:00 17.8 5 Este 9 Este 0 -- -- 37
2020-09-04 07:00:00 17 4 Sudeste 8 Este 0 -- -- 39
2020-09-04 06:00:00 17.3 5 Sudeste 10 Este 0 -- -- 38
2020-09-04 05:00:00 17.1 3 Este 12 Este 0 -- -- 38
2020-09-04 04:00:00 17.4 8 Este 10 Este 0 -- -- 40
2020-09-04 03:00:00 17.6 6 Este 8 Este 0 -- -- 39
2020-09-04 02:00:00 17.7 3 Sudeste 8 Este 0 -- -- 40
2020-09-04 01:00:00 18.2 2 Este 10 Este 0 -- -- 37
2020-09-04 00:00:00 18.4 0 Calma 4 Este 0 -- -- 45
2020-09-03 23:00:00 19.7 3 Este 6 Oeste 0 -- -- 42
2020-09-03 22:00:00 21.3 3 Este 8 Este 0 -- -- 40
2020-09-03 21:00:00 23.2 0 Calma 4 Noroeste 0 -- -- 61
2020-09-03 20:00:00 25.5 2 Sudoeste 16 Oeste 0 -- -- 52
2020-09-03 19:00:00 27.3 10 Oeste 15 Oeste 0 -- -- 44
2020-09-03 18:00:00 27.2 10 Oeste 23 Oeste 0 -- -- 40
2020-09-03 17:00:00 26.9 9 Oeste 21 Oeste 0 -- -- 38
2020-09-03 16:00:00 26.9 10 Oeste 21 Oeste 0 -- -- 41
2020-09-03 15:00:00 26.3 13 Oeste 22 Oeste 0 -- -- 55
2020-09-03 14:00:00 25.8 10 Oeste 22 Oeste 0 -- -- 58
2020-09-03 13:00:00 26.9 11 Oeste 21 Oeste 0 -- -- 50
2020-09-03 12:00:00 28.8 11 Oeste 16 Oeste 0 -- -- 33
2020-09-03 11:00:00 27.4 9 Oeste 13 Oeste 0 -- -- 26
2020-09-03 10:00:00 25.6 2 Sudoeste 6 Sudeste 0 -- -- 25
2020-09-03 09:00:00 18.2 4 Este 9 Sudeste 0 -- -- 34
2020-09-03 08:00:00 15.6 5 Sudeste 6 Sudeste 0 -- -- 37
2020-09-03 07:00:00 16 4 Sudeste 8 Este 0 -- -- 35
2020-09-03 06:00:00 17.3 2 Sudoeste 10 Sudeste 0 -- -- 32
2020-09-03 05:00:00 17.6 6 Este 10 Este 0 -- -- 30
2020-09-03 04:00:00 17.3 6 Este 10 Sudeste 0 -- -- 36
2020-09-03 03:00:00 16.4 6 Este 10 Este 0 -- -- 39
2020-09-03 02:00:00 16.9 4 Este 9 Este 0 -- -- 36
2020-09-03 01:00:00 16.8 4 Este 8 Este 0 -- -- 40
2020-09-03 00:00:00 16.8 7 Este 10 Oeste 0 -- -- 54
2020-09-02 23:00:00 17.3 6 Este 8 Este 0 -- -- 62
2020-09-02 22:00:00 19.3 2 Oeste 9 Este 0 -- -- 85
2020-09-02 21:00:00 20.7 3 Oeste 13 Oeste 0 -- -- 80
2020-09-02 20:00:00 23.3 10 Oeste 15 Oeste 0 -- -- 70
2020-09-02 19:00:00 24.7 5 Oeste 18 Oeste 0 -- -- 66
2020-09-02 18:00:00 24.6 10 Oeste 21 Oeste 0 -- -- 66
2020-09-02 17:00:00 25.1 12 Oeste 21 Oeste 0 -- -- 64
2020-09-02 16:00:00 24.8 12 Oeste 23 Oeste 0 -- -- 65
2020-09-02 15:00:00 24.5 10 Oeste 20 Oeste 0 -- -- 67
2020-09-02 14:00:00 24.2 11 Oeste 21 Oeste 0 -- -- 66
2020-09-02 13:00:00 24.1 12 Oeste 18 Oeste 0 -- -- 64
2020-09-02 12:00:00 23.4 9 Oeste 17 Oeste 0 -- -- 64
2020-09-02 11:00:00 22.5 9 Oeste 13 Oeste 0 -- -- 63
2020-09-02 10:00:00 20.1 8 Oeste 12 Oeste 0 -- -- 68
2020-09-02 09:00:00 14.9 0 Calma 9 Este 0 -- -- 65
2020-09-02 08:00:00 12.9 5 Este 9 Este 0 -- -- 74
2020-09-02 07:00:00 12.4 5 Este 8 Este 0 -- -- 82
2020-09-02 06:00:00 13.1 4 Este 11 Este 0 -- -- 84
2020-09-02 05:00:00 14 2 Sur 8 Este 0 -- -- 90
2020-09-02 04:00:00 13.9 0 Calma 9 Este 0 -- -- 79
2020-09-02 03:00:00 13.4 4 Este 8 Este 0 -- -- 67
2020-09-02 02:00:00 13.3 3 Este 7 Este 0 -- -- 71
2020-09-02 01:00:00 14 3 Este 8 Este 0 -- -- 68
2020-09-02 00:00:00 14.7 3 Nordeste 6 Este 0 -- -- 70
2020-09-01 23:00:00 15.8 0 Calma 4 Este 0 -- -- 67
2020-09-01 22:00:00 17.6 0 Calma 4 Nordeste 0 -- -- 74
2020-09-01 21:00:00 19.6 2 Oeste 10 Oeste 0 -- -- 77
2020-09-01 20:00:00 21.6 7 Oeste 15 Oeste 0 -- -- 68
2020-09-01 19:00:00 22.7 9 Oeste 21 Oeste 0 -- -- 63
2020-09-01 18:00:00 23.1 12 Oeste 23 Oeste 0 -- -- 62
2020-09-01 17:00:00 23.1 11 Oeste 22 Oeste 0 -- -- 61
2020-09-01 16:00:00 23.1 15 Oeste 23 Oeste 0 -- -- 61
2020-09-01 15:00:00 23.7 8 Oeste 22 Oeste 0 -- -- 60
2020-09-01 14:00:00 22.6 14 Oeste 22 Oeste 0 -- -- 62
2020-09-01 13:00:00 22.4 9 Oeste 21 Oeste 0 -- -- 63
2020-09-01 12:00:00 22 11 Oeste 21 Sudoeste 0 -- -- 62
2020-09-01 11:00:00 20.9 8 Oeste 15 Oeste 0 -- -- 60
2020-09-01 10:00:00 18.6 2 Nordeste 6 Nordeste 0 -- -- 69
2020-09-01 09:00:00 13.7 4 Este 9 Este 0 -- -- 77
2020-09-01 08:00:00 12.4 3 Este 7 Este 0 -- -- 77
2020-09-01 07:00:00 13 2 Este 10 Este 0 -- -- 78
2020-09-01 06:00:00 13.4 3 Sudeste 8 Este 0 -- -- 86
2020-09-01 05:00:00 14.4 2 Sur 8 Oeste 0 -- -- 76
2020-09-01 04:00:00 16.2 6 Nordeste 41 Este 0 -- -- 65
2020-09-01 03:00:00 16.8 23 Sudeste 48 Este 0 -- -- 64
2020-09-01 02:00:00 16.8 25 Este 44 Este 0 -- -- 60
2020-09-01 01:00:00 16.5 13 Este 37 Este 0 -- -- 61
2020-09-01 00:00:00 17.7 20 Este 49 Este 0 -- -- 50
2020-08-31 23:00:00 17.1 23 Este 48 Este 0 -- -- 55
2020-08-31 22:00:00 16.6 2 Noroeste 11 Oeste 0 -- -- 79
2020-08-31 21:00:00 17.2 6 Noroeste 28 Este 0 -- -- 78
2020-08-31 20:00:00 17.9 17 Este 28 Este 0 -- -- 73
2020-08-31 19:00:00 20.5 7 Sudoeste 20 Oeste 0 -- -- 67
2020-08-31 18:00:00 21.7 11 Oeste 21 Oeste 0 -- -- 64
2020-08-31 17:00:00 21.9 9 Sudoeste 42 Sur 0 -- -- 59
2020-08-31 16:00:00 21.3 14 Sudeste 32 Este 0 -- -- 60
2020-08-31 15:00:00 20.8 20 Este 39 Sudeste 0 -- -- 64
2020-08-31 14:00:00 21 21 Este 48 Este 0 -- -- 62
2020-08-31 13:00:00 19.9 24 Este 40 Este 0 -- -- 66
2020-08-31 12:00:00 19.3 24 Este 40 Sudeste 0 -- -- 68
2020-08-31 11:00:00 18.5 23 Este 41 Este 0 -- -- 69
2020-08-31 10:00:00 17.6 18 Este 42 Este 0 -- -- 72
2020-08-31 09:00:00 15.6 19 Este 35 Sudeste 0 -- -- 74
2020-08-31 08:00:00 15.2 20 Este 46 Nordeste 0 -- -- 79
2020-08-31 07:00:00 15.6 22 Este 46 Este 0 -- -- 70
2020-08-31 06:00:00 15.1 16 Este 42 Este 0 -- -- 71
2020-08-31 05:00:00 15.3 22 Este 45 Este 0 -- -- 77
2020-08-31 04:00:00 15.6 23 Este 52 Este 0 -- -- 71
2020-08-31 03:00:00 15.4 28 Este 54 Este 0 -- -- 68
2020-08-31 02:00:00 15.3 25 Este 60 Este 0 -- -- 78
2020-08-31 01:00:00 16.3 31 Este 62 Este 0 -- -- 68
2020-08-31 00:00:00 15.4 30 Este 55 Este 0 -- -- 74
2020-08-30 23:00:00 16 28 Este 52 Este 0 -- -- 78
2020-08-30 22:00:00 16.5 24 Este 58 Este 0 -- -- 70
2020-08-30 21:00:00 16.3 29 Este 56 Este 0 -- -- 70
2020-08-30 20:00:00 17 25 Este 63 Sudeste 0 -- -- 63
2020-08-30 19:00:00 17.7 24 Este 49 Este 0 -- -- 66
2020-08-30 18:00:00 18.9 31 Este 58 Este 0 -- -- 65
2020-08-30 17:00:00 19.6 31 Este 71 Este 0 -- -- 62
2020-08-30 16:00:00 19.9 34 Este 59 Este 0 -- -- 61
2020-08-30 15:00:00 20.7 34 Este 63 Este 0 -- -- 58
2020-08-30 14:00:00 20.5 35 Este 64 Este 0 -- -- 54
2020-08-30 13:00:00 19.6 37 Este 71 Este 0 -- -- 54
2020-08-30 12:00:00 18.5 39 Este 69 Este 0 -- -- 58
2020-08-30 11:00:00 18.8 26 Este 49 Sudeste 0 -- -- 63
2020-08-30 10:00:00 17.9 22 Este 58 Sudeste 0 -- -- 69
2020-08-30 09:00:00 15.9 26 Este 58 Este 0 -- -- 80
2020-08-30 08:00:00 16 37 Este 59 Este 0 -- -- 73
2020-08-30 07:00:00 15.8 32 Este 59 Este 0 -- -- 77
2020-08-30 06:00:00 16.8 33 Este 69 Este 0 -- -- 66
2020-08-30 05:00:00 15.9 32 Este 62 Este 0 -- -- 68
2020-08-30 04:00:00 15.4 38 Este 83 Este 0 -- -- 80
2020-08-30 03:00:00 15.6 34 Este 68 Este 0 -- -- 87
2020-08-30 02:00:00 17.2 29 Sudeste 64 Sudeste 0 -- -- 75
2020-08-30 01:00:00 16.9 43 Este 70 Este 0 -- -- 64
2020-08-30 00:00:00 16.7 40 Este 57 Sudeste 0 -- -- 81
2020-08-29 23:00:00 17 26 Este 65 Este 0 -- -- 77
2020-08-29 22:00:00 17.4 32 Este 59 Sudeste 0 -- -- 74
2020-08-29 21:00:00 20.2 22 Este 46 Este 0 -- -- 52
2020-08-29 20:00:00 20.6 26 Este 54 Este 0 -- -- 50
2020-08-29 19:00:00 20.4 33 Sudeste 57 Este 0 -- -- 72
2020-08-29 18:00:00 21.8 27 Sudeste 50 Sudeste 0 -- -- 69
2020-08-29 17:00:00 20.8 31 Este 65 Sudeste 0 -- -- 82
2020-08-29 16:00:00 23.1 29 Sudeste 55 Este 0 -- -- 70
2020-08-29 15:00:00 22.9 36 Este 76 Este 0 -- -- 70
2020-08-29 14:00:00 22.5 36 Este 70 Este 0 -- -- 69
2020-08-29 13:00:00 22.5 43 Este 71 Este 0 -- -- 67
2020-08-29 12:00:00 23 37 Este 66 Este 0 -- -- 61
2020-08-29 11:00:00 21.8 35 Este 63 Este 0 -- -- 60
2020-08-29 10:00:00 21.5 26 Este 53 Este 0 -- -- 52
2020-08-29 09:00:00 20.8 27 Este 48 Este 0 -- -- 49
2020-08-29 08:00:00 21 22 Este 40 Este 0 -- -- 42
2020-08-29 07:00:00 22.1 22 Este 47 Este 0 -- -- 34
2020-08-29 06:00:00 23.6 15 Este 28 Este 0 -- -- 25
2020-08-29 05:00:00 23.7 6 Este 28 Este 0 -- -- 25
2020-08-29 04:00:00 25.1 12 Sudeste 24 Sudeste 0 -- -- 22
2020-08-29 03:00:00 23.7 3 Este 16 Este 0 -- -- 31
2020-08-29 02:00:00 24.9 6 Oeste 12 Oeste 0 -- -- 34
2020-08-29 01:00:00 26.7 5 Este 23 Este 0 -- -- 25
2020-08-29 00:00:00 27.6 12 Este 27 Este 0 -- -- 18
2020-08-28 23:00:00 28.5 15 Este 35 Este 0 -- -- 17
2020-08-28 22:00:00 29.6 14 Este 27 Sudeste 0 -- -- 18
2020-08-28 21:00:00 30.5 12 Este 30 Este 0 -- -- 17
2020-08-28 20:00:00 31.1 10 Sudeste 17 Este 0 -- -- 17
2020-08-28 19:00:00 32 9 Oeste 19 Oeste 0 -- -- 32
2020-08-28 18:00:00 33.2 10 Oeste 31 Este 0 -- -- 33
2020-08-28 17:00:00 35.1 10 Este 36 Este 0 -- -- 23
2020-08-28 16:00:00 34.7 15 Este 45 Este 0 -- -- 19
2020-08-28 15:00:00 35.1 17 Nordeste 40 Este 0 -- -- 30
2020-08-28 14:00:00 34.4 28 Este 58 Este 0 -- -- 22
2020-08-28 13:00:00 33.4 30 Este 53 Este 0 -- -- 22
2020-08-28 12:00:00 33.4 30 Este 58 Este 0 -- -- 21
2020-08-28 11:00:00 32.6 30 Este 59 Este 0 -- -- 19
2020-08-28 10:00:00 31.5 32 Este 59 Este 0 -- -- 20
2020-08-28 09:00:00 29.9 36 Este 59 Este 0 -- -- 21
2020-08-28 08:00:00 29.1 36 Este 66 Este 0 -- -- 21
2020-08-28 07:00:00 28.8 39 Este 65 Este 0 -- -- 22
2020-08-28 06:00:00 29.1 35 Este 55 Este 0 -- -- 22
2020-08-28 05:00:00 29.9 33 Este 62 Sudeste 0 -- -- 20
2020-08-28 04:00:00 31.1 33 Este 63 Este 0 -- -- 19
2020-08-28 03:00:00 31.9 33 Este 59 Este 0 -- -- 17
2020-08-28 02:00:00 31.8 28 Este 50 Sudeste 0 -- -- 18
2020-08-28 01:00:00 32.3 26 Este 45 Este 0 -- -- 17
2020-08-28 00:00:00 29.8 26 Este 41 Este 0 -- -- 21